EW2802 Weather Reports


Display with metric or nautical units.
time (UTC)temp
F
wind
direction
speed
MPH
gust
MPH
rain 1hr
in
rain 24hr
in
rain mn
in
humidity
%
barometer
mb
20181015190502 32 96 5.0 11.0 0.03 0.08 0.08 69 1027.2
20181015190003 32 92 6.0 11.0 0.04 0.08 0.08 69 1026.7
20181015185502 32 88 5.0 11.0 0.03 0.06 0.06 72 1026.8
20181015185002 32 87 5.0 10.0 0.03 0.06 0.06 74 1026.9
20181015183004 30 85 5.0 10.0 0.06 0.06 0.06 75 1027.1
20181015182003 30 102 3.0 7.0 0.06 0.06 0.06 73 1027.2
20181015181503 30 99 3.0 9.0 0.05 0.05 0.05 73 1027.2
20181015180502 30 95 3.0 6.0 0.05 0.05 0.05 77 1027.3
20181015174005 30 100 2.0 4.0 0.01 0.01 0.01 79 1027.5
20181015171005 27 80 2.0 5.0 0.00 0.00 0.00 83 1027.8
20181015170505 27 82 3.0 5.0 0.00 0.00 0.00 81 1027.7
20181015170009 27 82 3.0 5.0 0.00 0.00 0.00 81 1027.8
20181015165003 27 86 2.0 4.0 0.00 0.00 0.00 82 1027.8
20181015164503 27 87 2.0 3.0 0.00 0.00 0.00 82 1027.8
20181015164003 26 85 2.0 3.0 0.00 0.00 0.00 81 1027.9
20181015163003 26 79 2.0 3.0 0.00 0.00 0.00 81 1028.0
20181015162502 26 77 2.0 3.0 0.00 0.00 0.00 81 1027.9
20181015162002 26 78 2.0 4.0 0.00 0.00 0.00 81 1028.2
20181015161506 26 96 2.0 4.0 0.00 0.00 0.00 82 1028.2
20181015161004 26 139 2.0 4.0 0.00 0.00 0.00 82 1028.3
20181015155003 26 236 1.0 2.0 0.00 0.00 0.00 87 1027.9
20181015154503 26 236 0.0 2.0 0.00 0.00 0.00 91 1028.0
20181015152502 25 245 1.0 3.0 0.00 0.00 0.00 91 1027.9
20181015151505 24 246 2.0 4.0 0.00 0.00 0.00 91 1027.9
20181015151002 24 239 1.0 4.0 0.00 0.00 0.00 92 1027.6
20181015150003 24 209 3.0 6.0 0.00 0.00 0.00 92 1027.4
20181015145503 23 215 2.0 5.0 0.00 0.00 0.00 93 1027.3
20181015144503 22 233 2.0 4.0 0.00 0.00 0.00 93 1027.4
20181015144002 21 238 2.0 4.0 0.00 0.00 0.00 93 1027.3
20181015143003 21 236 3.0 6.0 0.00 0.00 0.00 93 1027.2
20181015142005 20 238 4.0 8.0 0.00 0.00 0.00 93 1027.0
20181015141502 20 233 4.0 8.0 0.00 0.00 0.00 93 1026.8
20181015140003 19 239 4.0 8.0 0.00 0.00 0.00 93 1026.9
20181015134502 18 240 4.0 9.0 0.00 0.00 0.00 93 1027.1
20181015134002 18 240 4.0 9.0 0.00 0.00 0.00 93 1027.1
20181015133002 16 237 5.0 10.0 0.00 0.00 0.00 92 1026.4
20181015132001 16 241 4.0 9.0 0.00 0.00 0.00 92 1026.1
20181015131502 16 240 3.0 9.0 0.00 0.00 0.00 92 1026.4
20181015131002 17 246 1.0 4.0 0.00 0.00 0.00 92 1026.2
20181015130502 17 245 2.0 3.0 0.00 0.00 0.00 92 1026.1
20181015125004 17 240 3.0 6.0 0.00 0.00 0.00 92 1026.2
20181015124505 17 243 2.0 4.0 0.00 0.00 0.00 92 1026.2
20181015124002 17 242 2.0 4.0 0.00 0.00 0.00 93 1026.1
20181015123503 17 242 2.0 4.0 0.00 0.00 0.00 92 1026.3
20181015122002 17 240 4.0 7.0 0.00 0.00 0.00 92 1026.1
20181015121002 18 232 4.0 8.0 0.00 0.00 0.00 93 1025.9
20181015120502 18 243 4.0 8.0 0.00 0.00 0.00 93 1025.9
20181015115502 18 241 3.0 7.0 0.00 0.00 0.00 93 1025.8
20181015115001 17 240 3.0 7.0 0.00 0.00 0.00 93 1025.8
20181015114004 17 246 3.0 6.0 0.00 0.00 0.00 93 1025.7
20181015113502 17 234 3.0 4.0 0.00 0.00 0.00 93 1025.8
20181015113004 17 236 3.0 7.0 0.00 0.00 0.00 93 1025.7
20181015112502 17 237 4.0 7.0 0.00 0.00 0.00 93 1025.7
20181015111502 17 246 3.0 6.0 0.00 0.00 0.00 93 1025.6
20181015110002 17 258 3.0 6.0 0.00 0.00 0.00 93 1025.6
20181015105502 17 244 3.0 7.0 0.00 0.00 0.00 93 1025.5
20181015105002 16 246 3.0 7.0 0.00 0.00 0.00 93 1025.5
20181015104002 16 245 4.0 8.0 0.00 0.00 0.00 93 1025.6
20181015103502 16 244 3.0 6.0 0.00 0.00 0.00 93 1025.5
20181015103002 16 245 2.0 4.0 0.00 0.00 0.00 93 1025.5
20181015102502 16 242 2.0 4.0 0.00 0.00 0.00 94 1025.7
20181015101503 16 236 2.0 4.0 0.00 0.00 0.00 93 1025.8
20181015100003 15 195 2.0 5.0 0.00 0.00 0.00 93 1025.5
20181015095502 16 142 1.0 5.0 0.00 0.00 0.00 93 1025.4
20181015095002 16 118 1.0 2.0 0.00 0.00 0.00 93 1025.2
20181015094503 16 117 0.0 2.0 0.00 0.00 0.00 93 1025.4
20181015094002 16 117 1.0 1.0 0.00 0.00 0.00 93 1025.5
20181015093502 16 118 0.0 1.0 0.00 0.00 0.00 93 1025.5
20181015092503 16 118 0.0 1.0 0.00 0.00 0.00 93 1025.5
20181015092005 17 117 1.0 2.0 0.00 0.00 0.00 93 1025.2
20181015091014 17 117 1.0 2.0 0.00 0.00 0.00 93 1025.3
20181015085502 17 114 1.0 3.0 0.00 0.00 0.00 93 1025.5
20181015085002 17 114 0.0 1.0 0.00 0.00 0.00 93 1025.5
20181015083004 17 110 0.0 2.0 0.00 0.00 0.00 93 1025.5
20181015082503 17 110 0.0 1.0 0.00 0.00 0.00 93 1025.5
20181015081007 18 110 1.0 2.0 0.00 0.00 0.00 93 1025.4
20181015080002 18 107 1.0 2.0 0.00 0.00 0.00 93 1025.8
20181015064006 18 0 0.0 0.0 0.00 0.00 0.00 94 1025.0
20181015062503 18 0 0.0 0.0 0.00 0.00 0.00 93 1025.3
20181015062005 18 97 0.0 1.0 0.00 0.00 0.00 93 1025.5
20181015061505 18 97 0.0 1.0 0.00 0.00 0.00 94 1025.6
20181015060502 18 97 0.0 2.0 0.00 0.00 0.00 94 1025.5
20181015054503 18 97 1.0 2.0 0.00 0.00 0.00 94 1025.8
20181015053502 18 98 0.0 2.0 0.00 0.00 0.00 94 1025.7
20181015053002 18 98 0.0 2.0 0.00 0.00 0.00 94 1025.6
20181015052502 18 97 0.0 1.0 0.00 0.00 0.00 94 1025.7
20181015044503 19 98 2.0 6.0 0.00 0.00 0.00 94 1025.4
20181015044004 19 99 2.0 6.0 0.00 0.00 0.00 94 1025.4
20181015043004 19 96 2.0 6.0 0.00 0.00 0.00 94 1025.5
20181015042503 19 94 1.0 2.0 0.00 0.00 0.00 94 1025.3
20181015040005 20 54 0.0 2.0 0.00 0.00 0.00 94 1025.3
20181015035508 20 0 0.0 0.0 0.00 0.00 0.00 94 1025.4
20181015035005 19 54 0.0 1.0 0.00 0.00 0.00 94 1025.2
20181015034505 19 53 0.0 2.0 0.00 0.00 0.00 94 1025.1
20181015033507 20 54 0.0 2.0 0.00 0.00 0.00 94 1024.9
20181015033004 20 53 0.0 1.0 0.00 0.00 0.00 94 1025.1
20181015031504 20 54 1.0 3.0 0.00 0.00 0.00 94 1024.5
20181015030504 20 54 1.0 3.0 0.00 0.00 0.00 94 1024.3
20181015030004 20 54 1.0 3.0 0.00 0.00 0.00 94 1024.9
20181015025503 20 54 1.0 2.0 0.00 0.00 0.00 94 1024.8
20181015025004 20 54 0.0 2.0 0.00 0.00 0.00 94 1024.8
20181015024003 20 53 0.0 2.0 0.00 0.00 0.00 94 1024.5
20181015023504 20 54 0.0 1.0 0.00 0.00 0.00 94 1024.6
20181015022504 20 54 1.0 2.0 0.00 0.00 0.00 94 1024.3
20181015021505 19 54 0.0 2.0 0.00 0.00 0.00 94 1024.1
20181015021004 19 54 0.0 2.0 0.00 0.00 0.00 94 1023.9
20181015020004 19 54 1.0 3.0 0.00 0.00 0.00 94 1024.0
20181015015005 19 54 0.0 2.0 0.00 0.00 0.00 94 1023.9
20181015014007 19 54 0.0 2.0 0.00 0.00 0.00 94 1023.9
20181015013503 19 54 0.0 1.0 0.00 0.00 0.00 94 1023.8
20181015013003 19 53 0.0 1.0 0.00 0.00 0.00 94 1023.5
20181015012003 19 0 0.0 0.0 0.00 0.00 0.00 94 1023.2
20181015011504 19 54 0.0 1.0 0.00 0.00 0.00 94 1022.9
20181015005004 19 54 1.0 2.0 0.00 0.00 0.00 94 1023.1
20181015004504 19 54 2.0 3.0 0.00 0.00 0.00 94 1022.9
20181015002503 20 57 3.0 6.0 0.00 0.00 0.00 94 1022.6
20181015001003 20 56 4.0 7.0 0.00 0.00 0.00 94 1021.9
20181015000504 20 56 4.0 8.0 0.00 0.00 0.00 94 1021.6
20181014235004 20 56 5.0 11.0 0.00 0.00 0.00 93 1022.3
20181014234504 20 59 5.0 11.0 0.00 0.00 0.00 94 1022.1
20181014233504 21 56 6.0 10.0 0.00 0.00 0.00 94 1021.7
20181014233004 21 55 6.0 10.0 0.00 0.00 0.00 94 1021.8
20181014230004 21 61 5.0 9.0 0.00 0.00 0.00 94 1021.9
20181014225005 21 54 5.0 10.0 0.00 0.00 0.00 94 1021.8
20181014224504 21 55 5.0 12.0 0.00 0.00 0.00 94 1021.6
20181014224003 21 53 6.0 12.0 0.00 0.00 0.00 94 1021.4
20181014223505 21 52 6.0 11.0 0.00 0.00 0.00 94 1021.5
20181014223004 21 56 6.0 11.0 0.00 0.00 0.00 94 1021.5
20181014222504 21 60 6.0 10.0 0.00 0.00 0.00 94 1021.2
20181014222004 21 57 7.0 11.0 0.00 0.00 0.00 94 1021.0
20181014220504 21 58 8.0 12.0 0.00 0.00 0.00 94 1020.6
20181014215503 22 60 7.0 12.0 0.00 0.00 0.00 94 1021.3
20181014214004 22 54 6.0 11.0 0.00 0.00 0.00 94 1021.0
20181014212506 22 58 6.0 10.0 0.00 0.00 0.00 94 1020.6
20181014212004 22 60 6.0 11.0 0.00 0.00 0.00 94 1020.5
20181014211505 22 55 6.0 11.0 0.00 0.00 0.00 94 1020.2
20181014211003 22 56 6.0 11.0 0.00 0.00 0.00 94 1020.2
20181014205004 23 67 6.0 9.0 0.00 0.00 0.00 94 1020.4
20181014204503 23 64 5.0 9.0 0.00 0.00 0.00 94 1020.4
20181014202004 23 59 6.0 11.0 0.00 0.00 0.00 94 1020.0
20181014201504 23 62 7.0 11.0 0.00 0.00 0.00 94 1019.9
20181014195503 23 56 6.0 11.0 0.00 0.00 0.00 94 1020.3
20181014195003 23 54 6.0 10.0 0.00 0.00 0.00 94 1020.4
20181014194503 23 53 5.0 10.0 0.00 0.00 0.00 94 1020.3
20181014193004 23 63 6.0 12.0 0.00 0.00 0.00 94 1020.5
20181014192504 24 65 6.0 12.0 0.00 0.00 0.00 94 1020.4